COSMOS 1275 DEB, 12648

Orbit data source: Space-Track

COSMOS 1275 DEB, 12648 is space debris in LEO originally from a launch on Thu, 04 Jun 1981 UTC launched from the Plesetsk Missile And Space Complex (PKMTR). Debris objects in space refer to the collection of defunct objects orbiting the Earth. Examples of debris include non-operational satellites, rocket bodies, and fragments generated from explosions, collisions, or faulty payload assembly.

Loading next visibility...
Identifier
12648, 1981-053C
Orbit
LEO
Country
Flag of CISCIS
Related business
Manufacturer
Unknown
Mission
Spacecraft
Bus & Motor
Unknown
Mass
Unknown
Launch date (UTC)
1981-06-04 (45 years ago)
Launch vehicle
Unknown
Launch site
Plesetsk Missile And Space Complex (PKMTR)
Object type
Payload
Rocket body
Debris
Shape & HBR
Unknown shape, 0.5 m
Radar Cross Section
Medium (>0.1 m² and <1 m²)

Expand to show TLE details & history
Last TLE update: 7 hours ago

TLE from 7 hours ago
0 COSMOS 1275 DEB
1 12648U 81053C   26255.94766147  .00000214  00000-0  18584-3 0  9998
2 12648  82.9708 141.5279 0013261 288.8895  82.5597 13.81802214269796
Epoch: 2026-09-12T22:44Z
TLE epoch observation values (Epoch: 2026-09-12T22:44:37.951Z)
Latitude
11.46587°
Longitude
169.84605°
Altitude
958.407 km
Speed
7.374 km/s
True Right ascension
09h 31m 48s
True Declination
11° 24' 03"
Sunlit
Object was in daylight at epoch
Visualization orbit readout
Latitude
Unknown
Longitude
Unknown
Altitude
Unknown
Speed
Unknown
Apparent Right ascension
Unknown
Apparent Declination
Unknown
Sunlit
N/A
Visualization observer readout
Local Sidereal Time
22:30:19
Azimuth
Unknown
Elevation
Unknown
Doppler factor
Unknown
Orbital elements
Apogee altitude
964.364 km
Perigee altitude
944.916 km
Semi-major axis
7,332.777 km
Eccentricity
0.00133
Inclination
82.9708°
RAAN
141.5279°
Arg. of periapsis
288.8895°
True anomaly
82.71041°
Mean anomaly
82.5597°
Eccentric anomaly
82.63505°
Mean motion
3.45653 °/min
Orbital period
104.15 mins
BSTAR
0.00018584
Loading maneuver chart data...
Computing Atmospheric mass density...
Loading historical data...
Loading historical data...
Loading historical data...
Loading historical data...
Loading historical data...
Loading historical data...
Loading historical data...

Documentation

Showing up to 5 results
|